JE3XST-13 Weather Reports


time (UTC)temp
F
wind
direction
speed
knots
gust
knots
rain 1hr
in
rain 24hr
in
rain mn
in
humidity
%
barometer
mb
20260509122145 58 329 0.0 0.0 0.00 0.00 0.00 60 1018.9
20260509115145 61 329 0.0 0.0 0.00 0.00 0.00 56 1018.7
20260509112146 62 42 0.0 0.0 0.00 0.00 0.00 51 1018.5
20260509105147 63 77 0.0 0.0 0.00 0.00 0.00 49 1018.2
20260509102146 64 19 0.0 0.0 0.00 0.00 0.00 46 1017.7
20260509095145 65 330 2.6 4.3 0.00 0.00 0.00 44 1017.3
20260509092145 67 348 5.2 7.8 0.00 0.00 0.00 43 1016.9
20260509085146 68 347 5.2 7.8 0.00 0.00 0.00 41 1016.4
20260509082146 69 348 4.3 6.1 0.00 0.00 0.00 37 1016.3
20260509075145 70 321 6.1 7.8 0.00 0.00 0.00 35 1016.1
20260509072145 70 335 5.2 8.7 0.00 0.00 0.00 34 1016.0
20260509065145 70 306 1.7 4.3 0.00 0.00 0.00 37 1015.9
20260509062147 70 349 2.6 8.7 0.00 0.00 0.00 36 1015.8
20260509055145 70 4 6.1 10.4 0.00 0.00 0.00 36 1015.5
20260509052145 71 285 10.4 13.9 0.00 0.00 0.00 34 1015.6
20260509045145 70 35 4.3 11.3 0.00 0.00 0.00 34 1015.6
20260509042145 70 5 6.1 10.4 0.00 0.00 0.00 34 1016.1
20260509035146 70 6 6.1 10.4 0.00 0.00 0.00 34 1016.1
20260509032146 70 313 1.7 10.4 0.00 0.00 0.00 37 1016.3
20260509025146 68 341 6.1 15.6 0.00 0.00 0.00 38 1016.4
20260509022146 67 10 7.0 10.4 0.00 0.00 0.00 40 1016.8
20260509015146 67 345 5.2 7.8 0.00 0.00 0.00 42 1017.2
20260509012145 65 331 4.3 5.2 0.00 0.00 0.00 45 1017.3
20260509005146 65 24 5.2 7.8 0.00 0.00 0.00 47 1017.3
20260509002144 64 358 7.8 11.3 0.00 0.00 0.00 49 1017.4
20260508235144 62 10 6.1 7.8 0.00 0.00 0.00 52 1017.1
20260508232146 62 327 7.0 14.8 0.00 0.00 0.00 55 1017.3
20260508225146 60 293 6.1 11.3 0.00 0.00 0.00 57 1017.0
20260508222144 59 317 5.2 7.8 0.00 0.00 0.00 60 1016.9
20260508215146 57 302 0.0 0.0 0.00 0.00 0.00 64 1016.7
20260508212145 57 221 1.7 2.6 0.00 0.00 0.00 64 1016.4
20260508205145 57 267 0.0 0.0 0.00 0.00 0.00 63 1016.1
20260508202145 56 309 0.0 0.0 0.00 0.00 0.00 62 1015.6
20260508195146 57 329 0.9 2.6 0.00 0.00 0.00 61 1015.3
20260508192146 57 342 4.3 5.2 0.00 0.00 0.00 63 1015.0
20260508185146 57 320 1.7 5.2 0.00 0.00 0.00 64 1014.7
20260508182145 58 306 7.8 10.4 0.00 0.00 0.00 63 1014.5
20260508175145 58 47 1.7 4.3 0.00 0.00 0.00 59 1014.3
20260508172145 57 246 0.0 0.0 0.00 0.00 0.00 62 1013.9
20260508165145 58 163 0.0 0.0 0.00 0.00 0.00 61 1013.6
20260508162145 58 188 0.0 0.0 0.00 0.00 0.00 60 1013.4
20260508155145 58 191 0.0 0.0 0.00 0.00 0.00 63 1013.3
20260508152144 58 234 0.0 0.0 0.00 0.00 0.00 62 1013.5
20260508145144 59 279 0.0 0.0 0.00 0.00 0.00 60 1013.4
20260508142146 60 280 0.0 0.0 0.00 0.00 0.00 56 1013.2
20260508135145 60 261 0.0 0.0 0.00 0.00 0.00 53 1013.1
20260508132144 61 30 0.0 0.0 0.00 0.00 0.00 53 1012.7
20260508125145 61 34 0.9 2.6 0.00 0.00 0.00 54 1012.5